Location: Auzas
(43.1690°N, 0.8843°E)
Time: 11:19:35
(UTC+00:00)

Daily predictions for brighter satellites

Satellite Brightness Start Highest point End
(mag) Time Altitude Azimuth Time Altitude Azimuth Time Altitude Azimuth
Cosmos 2263 Rocket 2.2 18:06:36 10° NNW 18:12:12 82° ENE 18:17:45 10° SSE
ARGOS 3.7 18:10:03 10° SE 18:15:00 38° ENE 18:19:58 10° N
Gbstr 26 Del rocket 4.1 18:12:42 10° W 18:16:44 41° NNW 18:21:36 10° NE
ATLAS CENTAUR R/B 2.6 18:17:53 10° SSE 18:20:23 18° ESE 18:22:52 10° ENE
SKYMED 2 3.9 18:16:55 10° N 18:21:16 72° WNW 18:25:34 10° SSW
SL-4 R/B 3.5 18:18:52 10° NW 18:21:37 20° N 18:24:17 10° NE
SJ-11-01 4.5 18:17:08 10° SE 18:21:37 49° ENE 18:26:10 10° N
H-2A R/B 3.8 18:18:18 10° N 18:22:02 35° WNW 18:25:45 10° SW
Cosmos 1470 Rocket 4.3 18:19:31 10° SSE 18:23:31 32° E 18:27:29 10° NNE
Meteor 1-20 Rocket 4.1 18:18:48 10° S 18:24:11 68° E 18:29:39 10° NNE
CZ-2C R/B 3.2 18:23:02 10° NNE 18:28:01 35° E 18:32:52 10° SSE
Okean O Rocket 4.0 18:24:24 10° SSW 18:28:11 29° W 18:31:59 10° NW
Cosmos 1689 Rocket 2.5 18:26:30 10° NNE 18:29:13 38° E 18:31:56 10° S
Cosmos 1992 Rocket 4.3 18:26:56 10° S 18:31:53 46° ESE 18:36:53 10° NNE
PSLV R/B 3.9 18:30:33 10° NNE 18:34:38 65° ESE 18:38:38 10° S
Cosmos 1486 Rocket 4.1 18:31:07 10° NNW 18:36:22 60° ENE 18:41:36 10° SSE
SAR-Lupe-4 3.7 18:33:28 10° NNE 18:36:58 48° E 18:40:25 10° S
IRS-1C Rocket 4.2 18:31:52 10° SSE 18:37:08 82° WSW 18:42:27 10° NNW
Cosmos 968 Rocket 3.5 18:31:54 10° NNW 18:37:11 70° ENE 18:42:25 10° SSE
H-2A R/B 2.2 18:33:06 10° SSE 18:38:33 85° ENE 18:44:02 10° NNW
APEX 2.8 18:38:42 10° NNW 18:41:29 63° WSW 18:44:08 10° SSE
Cosmos 2327 Rocket 4.5 18:37:33 10° S 18:43:50 67° E 18:50:04 10° NNE
Cosmos 1933 Rocket 4.1 18:40:34 10° SSE 18:44:30 35° E 18:48:30 10° NNE
USA 234 3.5 18:38:16 10° ENE 18:44:34 49° SE 18:50:51 10° SSW
CSL-04 Rocket 3.8 18:40:20 10° SSE 18:45:44 56° ENE 18:51:08 10° N
CSL-04 Debris 4.2 18:40:32 10° SSE 18:45:51 60° ENE 18:51:13 10° N
Cosmos 1666 Rocket 4.0 18:41:41 10° SSW 18:45:58 65° W 18:50:17 10° N
SeaSat 1 2.5 18:41:48 10° NNE 18:46:43 60° ESE 18:51:34 10° SSW
Aureole 2 Rocket 2.6 18:44:32 10° N 18:46:45 26° ENE 18:47:11 24° E
Cosmos 1844 Rocket 3.3 18:42:27 10° N 18:47:34 36° ENE 18:51:49 14° ESE
Cosmos 1271 Rocket 3.7 18:44:37 10° NNW 18:48:15 50° W 18:51:53 10° S
Cosmos 1862 Rocket 3.5 18:45:15 10° N 18:49:46 79° E 18:54:14 10° SSE
Cosmos 1666 3.9 18:47:26 10° SE 18:50:12 20° E 18:52:59 10° NE
ERS-2 2.0 18:46:52 10° NNE 18:50:32 82° ESE 18:54:11 10° SSW
Cosmos 2242 Rocket 4.3 18:46:31 10° N 18:50:34 32° ENE 18:54:34 10° SE
Nadezhda 3 Rocket 4.0 18:49:25 10° N 18:55:49 77° E 19:02:11 10° SSE
Cosmos 1844 4.4 18:50:49 10° N 18:56:07 35° NE 18:59:37 19° ESE
SAR-Lupe-1 4.0 18:52:36 10° NNE 18:56:12 90° W 18:59:48 10° SSW
Cosmos 1602 4.1 18:53:04 10° SSW 18:56:55 66° W 19:00:50 10° N
Meteor 1-19 Rocket 4.3 18:51:08 10° N 18:57:08 82° E 19:02:54 10° SSE
Cosmos 2360 Rocket 2.3 18:53:13 10° S 18:58:41 54° ESE 19:04:12 10° NNE
Cosmos 2154 Rocket 4.0 18:53:07 10° S 18:59:21 87° E 19:05:34 10° N
Cosmos 2278 Rocket 4.1 18:59:36 10° NNE 19:01:26 11° NE 19:02:28 11° NE
YAOGAN 1 3.2 18:57:52 10° S 19:02:06 57° W 19:06:24 10° NNW
Cosmos 1354 Rocket 4.2 18:57:07 10° N 19:02:14 50° ENE 19:06:39 13° SE
Cosmos 1295 Rocket 4.4 18:57:38 10° S 19:03:54 80° E 19:10:07 10° N
Cosmos 2333 Rocket 3.0 19:00:55 10° SSE 19:05:32 26° ESE 19:08:24 18° ENE
GP-B 3.1 19:01:22 10° SSE 19:05:41 56° E 19:10:03 10° N
Meteor 2-4 Rocket 3.8 19:00:03 10° N 19:05:49 58° ENE 19:11:38 10° SSE
FALCON 9 DEB 4.2 19:04:12 10° NW 19:07:17 30° NNE 19:08:06 27° NE
Cosmos 1500 3.0 19:04:55 10° S 19:08:38 76° E 19:12:22 10° NNE
Abrixas rocket 3.2 19:10:45 10° WNW 19:12:54 24° N 19:13:15 24° N
Cosmos 1503 Rocket 3.9 19:07:54 10° NNW 19:13:07 72° ENE 19:18:08 11° SSE
HJ-1C 4.2 19:11:33 10° S 19:14:48 50° W 19:18:03 10° NNW
Helios 1A Rocket 3.2 19:11:13 10° S 19:15:15 68° WSW 19:19:18 10° NNW
BREEZE-M DEB (TANK) 4.3 19:14:13 10° WSW 19:18:16 85° NNW 19:35:17 10° ENE
Ariane Rocket 3.5 19:19:27 31° ESE 19:21:00 38° ENE 19:25:43 10° N
SJ 16-02 3.6 19:23:54 10° NNE 19:24:29 11° NNE 19:24:29 11° NNE
Cosmos 44 Rocket 3.9 19:22:29 10° NW 19:27:40 61° WSW 19:32:10 13° SSE
Cosmos 2322 Rocket 3.0 19:22:33 10° SW 19:28:01 51° WNW 19:33:30 10° NNE
SJ-6B 3.0 19:28:27 48° ESE 19:29:01 53° ENE 19:32:59 10° N
Okean 1-7 2.9 19:25:02 10° N 19:29:24 67° E 19:31:28 30° SSE
MOS 1 4.5 19:27:32 30° SE 19:30:00 48° ENE 19:35:26 10° N
SL-8 Rocket 3.9 19:27:08 10° S 19:33:17 65° E 19:39:26 10° NNE
COSMOS 2428 3.9 19:30:14 10° SSE 19:32:47 24° SSE 19:32:47 24° SSE
Meteor 1-11 Rocket 3.9 19:30:15 10° SSE 19:35:45 49° E 19:41:09 10° NNE
Cosmos 1869 Rocket 4.0 19:39:35 43° NE 19:39:35 43° NE 19:42:49 10° NNE
SME Rocket 4.0 19:32:13 10° NNE 19:40:15 67° E 19:45:27 10° S
CZ-4 R/B 4.4 19:40:16 10° SW 19:42:37 15° W 19:44:59 10° NW
Cosmos 2219 Rocket 2.3 19:41:08 10° S 19:46:09 49° ESE 19:46:09 49° ESE
Cosmos 2366 rocket 3.9 19:41:26 10° S 19:47:40 69° E 19:53:58 10° NNE
Cosmos 1339 Rocket 4.4 19:41:45 10° N 19:47:58 83° E 19:53:47 12° S
IRS-1A Rocket 4.1 19:46:49 37° SE 19:49:05 72° ENE 19:54:39 10° N
Meteor 1-13 Rocket 4.2 19:44:43 10° N 19:50:41 73° E 19:53:01 38° SSE
SL-16 R/B 4.1 19:47:22 10° WSW 19:52:13 29° NW 19:57:06 10° N
MetOp-A 4.3 19:48:04 13° S 19:52:56 74° WSW 19:58:19 10° NNW
Cosmos 2341 Rocket 4.3 19:47:01 10° SSW 19:53:19 70° W 19:59:36 10° N
Cosmos 1066 Rocket 4.2 19:52:05 10° N 19:57:44 60° ENE 19:57:55 59° E
ATLAS CENTAUR R/B 2.5 19:55:36 10° WSW 19:58:58 36° NW 19:59:42 32° NNW
SL-4 R/B 3.6 19:58:47 10° NW 20:00:36 23° NNW 20:00:36 23° NNW
Cosmos 2322 3.6 19:57:35 10° SSW 20:03:19 87° ESE 20:09:05 10° NNE
CZ-2C R/B 4.3 20:03:22 10° N 20:08:14 33° WNW 20:12:59 10° SW
Cosmos 1727 Rocket 3.8 20:04:26 10° N 20:10:36 68° E 20:10:41 68° E
Cosmos 2218 Rocket 4.1 20:06:58 10° SSW 20:13:21 76° W 20:19:47 10° N
ASTEX 1 3.5 20:10:30 10° N 20:15:23 70° W 20:15:59 62° SW
Cosmos 192 4.5 20:10:45 10° SSW 20:15:37 70° WNW 20:15:48 69° NW
OBJECT-B 3.7 20:20:27 14° NNW 20:20:27 14° NNW 20:21:05 10° NNW
Meteor 2-20 4.4 20:14:49 10° N 20:20:13 65° NE 20:20:13 65° NE
BREEZE-M DEB (TANK) 3.9 20:20:19 10° NW 20:22:09 35° NNW 20:22:09 35° NNW
Resurs 01 Rocket 3.6 20:26:56 20° N 20:26:56 20° N 20:28:23 10° N
USA 234 3.7 20:24:20 29° NNE 20:27:38 57° NNW 20:33:59 10° WSW
Cosmos 1844 Rocket 4.0 20:26:23 10° NW 20:31:24 35° WSW 20:33:33 26° SW
Cosmos 2360 Rocket 4.2 20:38:22 10° WSW 20:43:00 25° NW 20:47:41 10° N
Cosmos 2278 Rocket 3.5 20:41:13 10° NNW 20:44:20 32° N 20:44:20 32° N
Cosmos 2333 Rocket 3.0 20:44:02 10° SW 20:49:30 47° WNW 20:50:49 40° NNW
SJ 16-02 4.1 21:00:50 10° NNW 21:01:29 14° NNW 21:01:29 14° NNW
Cosmos 2219 Rocket 4.4 21:26:00 10° WSW 21:37:51 - NNE 21:28:09 19° W
